Date String (YYYY-MM-DD hh:mm:ss) UTC,Instrument flags,Ambient pressure (hPa),Sample flow (lpm),Bypass flow (lpm),Sample temperature (°C),Ambient temperature (°C),ASC tube jacket temperature (°C),LED temperature (°C),Box temperature (°C),Sample RH (%),Mass concentration (μg/m³),Mass concentration (μg/m³)
DateTimeUTC,F1_M11,P_M11,Q1_M11,Q2_M11,T1_M11,T2_M11,T3_M11,T4_M11,T5_M11,U1_M11,X0_M11,X2_M11
2021-08-14 08:00:00,,0834.4,4.99,0.00,29.8,28.1,00.0,38.8,31.4,34.7,0025.98,0013.05
2021-08-14 08:01:00,,0834.4,5.02,0.00,29.7,26.2,00.0,38.8,30.9,35.7,0026.50,0013.21
2021-08-14 08:02:00,,0834.4,4.99,0.00,29.8,25.5,00.0,38.7,30.9,36.4,0026.00,0013.32
2021-08-14 08:03:00,,0834.4,5.01,0.00,30.0,25.7,00.0,38.7,31.1,36.1,0025.46,0013.39
2021-08-14 08:04:00,,0834.4,4.99,0.00,30.3,26.2,00.0,38.7,31.3,35.9,0025.57,0013.46
2021-08-14 08:05:00,,0834.4,4.99,0.00,30.7,26.7,00.0,38.7,31.4,33.0,0025.35,0013.43
2021-08-14 08:06:00,,0834.4,5.01,0.00,30.9,27.1,00.0,38.7,31.5,33.4,0025.21,0013.39
2021-08-14 08:07:00,,0834.4,4.99,0.00,31.1,27.4,00.0,38.8,31.5,32.1,0026.13,0013.27
2021-08-14 08:08:00,,0834.4,5.00,0.00,31.1,27.7,00.0,38.9,31.5,31.7,0027.27,0013.25
2021-08-14 08:09:00,,0834.4,5.01,0.00,31.1,27.9,00.0,39.0,31.5,31.6,0027.19,0013.33
2021-08-14 08:10:00,,0834.4,5.00,0.00,31.2,28.1,00.0,39.1,31.6,31.3,0026.61,0013.26
2021-08-14 08:11:00,,0834.4,5.00,0.00,31.2,28.2,00.0,39.2,31.6,30.9,0026.81,0013.25
2021-08-14 08:12:00,,0834.4,4.99,0.00,31.2,28.4,00.0,39.3,31.7,31.1,0026.73,0013.19
2021-08-14 08:13:00,,0834.3,4.99,0.00,31.1,28.5,00.0,39.3,31.7,31.4,0027.43,0013.10
2021-08-14 08:14:00,,0834.4,5.01,0.00,31.1,28.6,00.0,39.4,31.8,31.2,0027.58,0013.00
2021-08-14 08:15:00,,0834.3,4.98,0.00,31.1,28.7,00.0,39.5,31.7,31.0,0026.98,0012.89
2021-08-14 08:16:00,,0834.3,5.01,0.00,31.1,28.7,00.0,39.5,31.8,31.3,0026.66,0012.84
2021-08-14 08:17:00,,0834.3,5.01,0.00,31.1,28.8,00.0,39.5,31.9,31.4,0026.77,0012.83
2021-08-14 08:18:00,,0834.3,4.98,0.00,31.1,28.9,00.0,39.6,31.9,31.9,0025.74,0012.95
2021-08-14 08:19:00,,0834.4,5.01,0.00,31.1,28.9,00.0,39.6,32.0,32.3,0024.64,0013.00
2021-08-14 08:20:00,,0834.3,5.01,0.00,31.0,29.0,00.0,39.6,32.0,32.3,0024.26,0012.93
2021-08-14 08:21:00,,0834.4,5.00,0.00,31.0,29.1,00.0,39.7,32.0,32.9,0024.43,0012.97
2021-08-14 08:22:00,,0834.3,4.99,0.00,31.0,29.1,00.0,39.7,32.0,33.1,0024.82,0013.01
2021-08-14 08:23:00,,0834.3,5.00,0.00,31.0,29.2,00.0,39.7,32.1,33.3,0024.34,0013.01
2021-08-14 08:24:00,,0834.3,5.00,0.00,31.0,29.2,00.0,39.7,32.1,33.1,0023.49,0013.05
2021-08-14 08:25:00,,0834.3,5.01,0.00,31.0,29.0,00.0,39.7,32.0,32.7,0023.26,0013.21
2021-08-14 08:26:00,,0834.3,5.01,0.00,30.9,27.3,00.0,39.7,31.6,32.2,0023.39,0013.27
2021-08-14 08:27:00,,0834.3,4.98,0.00,30.7,25.9,00.0,39.6,31.2,32.4,0023.77,0013.39
2021-08-14 08:28:00,,0834.3,5.01,0.00,30.5,25.6,00.0,39.6,31.1,32.3,0023.54,0013.42
2021-08-14 08:29:00,,0834.3,5.00,0.00,30.4,26.0,00.0,39.5,31.1,31.4,0023.50,0013.36
2021-08-14 08:30:00,,0834.3,5.01,0.00,30.3,26.5,00.0,39.5,31.2,31.7,0024.01,0013.24
2021-08-14 08:31:00,,0834.3,4.99,0.00,30.2,26.9,00.0,39.4,31.3,31.8,0025.22,0013.20
2021-08-14 08:32:00,,0834.3,4.99,0.00,30.2,27.3,00.0,39.4,31.3,31.8,0025.72,0013.19
2021-08-14 08:33:00,,0834.3,5.00,0.00,30.2,27.6,00.0,39.3,31.4,31.5,0026.03,0013.12
2021-08-14 08:34:00,,0834.2,5.00,0.00,30.2,27.8,00.0,39.3,31.4,31.2,0026.21,0013.09
2021-08-14 08:35:00,,0834.2,5.01,0.00,30.2,28.0,00.0,39.3,31.5,31.2,0026.13,0013.00
2021-08-14 08:36:00,,0834.2,4.99,0.00,30.2,28.2,00.0,39.3,31.5,30.8,0027.23,0012.83
2021-08-14 08:37:00,,0834.2,5.01,0.00,30.2,28.3,00.0,39.3,31.6,30.5,0027.77,0012.77
2021-08-14 08:38:00,,0834.2,5.00,0.00,30.2,28.4,00.0,39.2,31.6,30.3,0028.14,0012.68
2021-08-14 08:39:00,,0834.3,4.99,0.00,30.2,28.5,00.0,39.2,31.6,30.1,0028.58,0012.57
2021-08-14 08:40:00,,0834.3,5.02,0.00,30.2,28.6,00.0,39.2,31.6,30.0,0028.23,0012.49
2021-08-14 08:41:00,,0834.3,4.99,0.00,30.2,28.7,00.0,39.2,31.7,29.9,0027.39,0012.46
2021-08-14 08:42:00,,0834.3,5.01,0.00,30.2,28.7,00.0,39.2,31.7,29.9,0026.30,0012.45
2021-08-14 08:43:00,,0834.3,5.00,0.00,30.3,28.8,00.0,39.2,31.8,29.9,0025.91,0012.34
2021-08-14 08:44:00,,0834.3,4.99,0.00,30.3,28.8,00.0,39.3,31.8,29.9,0025.72,0012.34
2021-08-14 08:45:00,,0834.3,5.01,0.00,30.3,28.9,00.0,39.3,31.8,29.9,0025.67,0012.32
2021-08-14 08:46:00,,0834.3,4.99,0.00,30.3,28.9,00.0,39.3,31.9,30.0,0027.07,0012.36
2021-08-14 08:47:00,,0834.3,5.00,0.00,30.3,29.0,00.0,39.3,31.9,29.9,0025.90,0012.38
2021-08-14 08:48:00,,0834.2,5.00,0.00,30.3,29.0,00.0,39.3,31.9,30.0,0025.32,0012.32
2021-08-14 08:49:00,,0834.2,5.00,0.00,30.3,29.1,00.0,39.3,31.9,30.1,0025.11,0012.28
2021-08-14 08:50:00,,0834.1,5.01,0.00,30.4,29.1,00.0,39.3,31.9,30.3,0024.45,0012.29
2021-08-14 08:51:00,,0834.1,4.99,0.00,30.4,29.0,00.0,39.3,31.9,30.0,0024.43,0012.37
2021-08-14 08:52:00,,0834.1,5.00,0.00,30.3,27.6,00.0,39.3,31.5,30.0,0023.97,0012.39
2021-08-14 08:53:00,,0834.1,5.00,0.00,30.1,26.4,00.0,39.3,31.2,30.2,0023.42,0012.41
2021-08-14 08:54:00,,0834.1,5.00,0.00,30.0,26.4,00.0,39.2,31.2,30.4,0023.90,0012.53
2021-08-14 08:55:00,,0834.0,5.01,0.00,29.9,26.8,00.0,39.2,31.2,30.7,0023.68,0012.56
2021-08-14 08:56:00,,0834.0,5.00,0.00,29.9,27.2,00.0,39.1,31.2,30.8,0023.32,0012.53
2021-08-14 08:57:00,,0834.0,5.00,0.00,29.9,27.5,00.0,39.1,31.3,30.8,0022.83,0012.44
2021-08-14 08:58:00,,0834.0,5.00,0.00,29.9,27.7,00.0,39.1,31.3,30.8,0023.13,0012.38
2021-08-14 08:59:00,,0834.0,5.00,0.00,29.9,28.0,00.0,39.0,31.4,30.8,0022.91,0012.43
